Location: Igon
(43.1667°N, 0.2333°W)
Time: 17:25:30
(UTC+00:00)

NOSS 3-2 (A) - Visible Passes

Search period start: 16 April 2021 00:00
Search period end: 26 April 2021 00:00
Orbit: 780 x 1427 km, 63.4° (Epoch: 31 March)

Date Brightness Start Highest point End Pass type
(mag) Time Alt. Az. Time Alt. Az. Time Alt. Az.
16 Apr 5.7 20:14:02 10° NW 20:20:36 29° WSW 20:27:41 10° SSW visible
17 Apr 5.2 19:28:06 10° NW 19:35:24 44° WSW 19:43:25 10° S visible
18 Apr 6.5 20:36:11 10° WNW 20:39:59 14° WSW 20:43:55 10° SW visible
19 Apr 6.2 19:49:03 10° WNW 19:54:58 23° WSW 20:01:18 10° SSW visible
20 Apr 5.7 19:02:52 10° NW 19:09:50 36° WSW 19:17:25 10° S visible
22 Apr 6.5 19:24:17 10° WNW 19:29:18 18° WSW 19:34:35 10° SW visible
